When you browse on this site, cookies collect data to enhance your experience and personalize the content and advertising you see.
Visit our Privacy Policy to learn more. By continuing to use the site, you agree to this use of cookies and data.
  • In Hungary
  • List of Countries
  • For 7 days
  • Water Temperature
  • Satellite Maps
  • Weather Map
  • News
  • Weather Widgets
  • user-avatar
    Login

    Hourly Weather Devonport

    Today, 20 February, Wednesday

    Time Temperature Precipitation Wind Pressure Humidity
    00:00 +18°C° 0 mm 0 mps 759 mmHg 86%
    01:00 +18°C° 0 mm 0 mps 759 mmHg 87%
    02:00 +20°C° 0 mm 1 mps 759 mmHg 88%
    03:00 +20°C° 0 mm 1 mps 759 mmHg 89%
    04:00 +19°C° 0 mm 1 mps 759 mmHg 90%
    05:00 +19°C° 0 mm 1 mps 759 mmHg 90%
    06:00 +17°C° 0 mm 0 mps 759 mmHg 92%
    07:00 +19°C° 0 mm 0 mps 759 mmHg 82%
    08:00 +23°C° 0 mm 1 mps 759 mmHg 71%
    09:00 +26°C° 0 mm 1 mps 759 mmHg 61%
    10:00 +27°C° 0 mm 1 mps 759 mmHg 56%
    11:00 +28°C° 0 mm 1 mps 759 mmHg 51%
    12:00 +28°C° 0 mm 2 mps 759 mmHg 48%
    13:00 +29°C° 0 mm 2 mps 759 mmHg 49%
    14:00 +29°C° 0 mm 2 mps 759 mmHg 49%
    15:00 +29°C° 0 mm 2 mps 759 mmHg 49%
    16:00 +28°C° 0 mm 3 mps 759 mmHg 55%
    17:00 +27°C° 0 mm 3 mps 759 mmHg 61%
    18:00 +24°C° 0 mm 2 mps 759 mmHg 83%
    19:00 +24°C° 0 mm 2 mps 760 mmHg 84%
    20:00 +24°C° 0 mm 2 mps 760 mmHg 86%
    21:00 +23°C° 0 mm 2 mps 760 mmHg 87%
    22:00 +23°C° 0 mm 2 mps 761 mmHg 87%
    23:00 +22°C° 0 mm 3 mps 761 mmHg 86%

    Tomorrow, 21 February, Thursday

    Time Temperature Precipitation Wind Pressure Humidity
    00:00 +22°C° 0 mm 3 mps 760 mmHg 88%
    01:00 +22°C° 0 mm 3 mps 760 mmHg 88%
    02:00 +22°C° 0 mm 3 mps 760 mmHg 88%
    03:00 +22°C° 0 mm 3 mps 760 mmHg 89%
    04:00 +22°C° 0 mm 3 mps 760 mmHg 89%
    05:00 +21°C° 0 mm 3 mps 760 mmHg 89%
    06:00 +21°C° 0 mm 3 mps 760 mmHg 89%
    07:00 +22°C° 0 mm 3 mps 761 mmHg 83%
    08:00 +24°C° 0 mm 3 mps 761 mmHg 78%
    09:00 +25°C° 0 mm 4 mps 761 mmHg 72%
    10:00 +26°C° 0 mm 4 mps 761 mmHg 68%
    11:00 +27°C° 0 mm 4 mps 761 mmHg 64%
    12:00 +27°C° 0 mm 4 mps 761 mmHg 60%
    13:00 +27°C° 0 mm 5 mps 761 mmHg 61%
    14:00 +27°C° 0 mm 5 mps 761 mmHg 62%
    15:00 +27°C° 0 mm 5 mps 761 mmHg 63%
    16:00 +26°C° 0 mm 5 mps 760 mmHg 66%
    17:00 +26°C° 0 mm 4 mps 760 mmHg 69%
    18:00 +25°C° 0 mm 4 mps 760 mmHg 73%
    19:00 +25°C° 0 mm 4 mps 760 mmHg 76%
    20:00 +23°C° 0 mm 4 mps 760 mmHg 78%
    21:00 +23°C° 0 mm 4 mps 761 mmHg 81%
    22:00 +22°C° 0.1 mm 4 mps 761 mmHg 83%
    23:00 +22°C° 0.1 mm 4 mps 761 mmHg 84%

    Day after tomorrow, 22 February, Friday

    Time Temperature Precipitation Wind Pressure Humidity
    00:00 +22°C° 0.1 mm 3 mps 761 mmHg 85%
    01:00 +22°C° 0.1 mm 3 mps 760 mmHg 86%
    02:00 +22°C° 0.1 mm 3 mps 760 mmHg 87%
    03:00 +22°C° 0.1 mm 3 mps 760 mmHg 87%
    04:00 +22°C° 0.1 mm 3 mps 760 mmHg 87%
    05:00 +22°C° 0.1 mm 3 mps 760 mmHg 87%
    06:00 +22°C° 0.1 mm 3 mps 759 mmHg 86%
    07:00 +22°C° 0.2 mm 3 mps 760 mmHg 84%
    08:00 +22°C° 0.2 mm 3 mps 760 mmHg 82%
    09:00 +22°C° 0.2 mm 4 mps 760 mmHg 80%
    10:00 +22°C° 0.1 mm 4 mps 760 mmHg 76%
    11:00 +23°C° 0.1 mm 4 mps 759 mmHg 71%
    12:00 +25°C° 0.1 mm 4 mps 759 mmHg 67%
    13:00 +23°C° 0.3 mm 4 mps 759 mmHg 69%
    14:00 +23°C° 0.3 mm 4 mps 758 mmHg 72%
    15:00 +22°C° 0.3 mm 4 mps 758 mmHg 74%
    16:00 +22°C° 0.3 mm 4 mps 757 mmHg 79%
    17:00 +22°C° 0.3 mm 4 mps 757 mmHg 83%
    18:00 +21°C° 0.3 mm 4 mps 757 mmHg 87%
    19:00 +21°C° 0.1 mm 5 mps 756 mmHg 88%
    20:00 +22°C° 0.1 mm 5 mps 756 mmHg 88%
    21:00 +22°C° 0.1 mm 5 mps 756 mmHg 89%
    22:00 +22°C° 0.1 mm 5 mps 756 mmHg 88%
    23:00 +22°C° 0.1 mm 5 mps 756 mmHg 87%

    23 February, Saturday

    Time Temperature Precipitation Wind Pressure Humidity
    00:00 +22°C° 0.1 mm 5 mps 755 mmHg 86%
    01:00 +22°C° 0.2 mm 4 mps 754 mmHg 88%
    02:00 +22°C° 0.2 mm 4 mps 753 mmHg 90%
    03:00 +21°C° 0.2 mm 3 mps 753 mmHg 92%
    04:00 +21°C° 0.1 mm 3 mps 752 mmHg 93%
    05:00 +21°C° 0.1 mm 2 mps 752 mmHg 93%
    06:00 +22°C° 0.1 mm 1 mps 752 mmHg 94%
    07:00 +23°C° 0 mm 2 mps 752 mmHg 91%
    08:00 +24°C° 0 mm 3 mps 752 mmHg 87%
    09:00 +23°C° 0 mm 4 mps 752 mmHg 83%
    10:00 +23°C° 0 mm 4 mps 752 mmHg 76%
    11:00 +25°C° 0 mm 5 mps 752 mmHg 68%
    12:00 +24°C° 0 mm 6 mps 752 mmHg 61%
    13:00 +24°C° 0 mm 6 mps 752 mmHg 59%
    14:00 +23°C° 0 mm 6 mps 751 mmHg 56%
    15:00 +23°C° 0 mm 6 mps 751 mmHg 54%
    16:00 +22°C° 0 mm 6 mps 751 mmHg 56%
    17:00 +21°C° 0 mm 6 mps 751 mmHg 58%
    18:00 +20°C° 0 mm 6 mps 751 mmHg 60%
    19:00 +20°C° 0 mm 6 mps 751 mmHg 62%
    20:00 +19°C° 0 mm 5 mps 751 mmHg 64%
    21:00 +19°C° 0 mm 5 mps 751 mmHg 66%
    22:00 +19°C° 0 mm 5 mps 750 mmHg 66%
    23:00 +19°C° 0 mm 5 mps 749 mmHg 66%

    24 February, Sunday

    Time Temperature Precipitation Wind Pressure Humidity
    00:00 +19°C° 0 mm 6 mps 749 mmHg 65%
    01:00 +19°C° 1.3 mm 6 mps 748 mmHg 72%
    02:00 +17°C° 1.3 mm 7 mps 747 mmHg 78%
    03:00 +16°C° 1.3 mm 8 mps 747 mmHg 84%
    04:00 +16°C° 0.2 mm 7 mps 746 mmHg 77%
    05:00 +17°C° 0.2 mm 7 mps 746 mmHg 70%
    06:00 +17°C° 0.2 mm 7 mps 746 mmHg 63%
    07:00 +17°C° 0.6 mm 6 mps 746 mmHg 68%
    08:00 +16°C° 0.6 mm 6 mps 746 mmHg 73%
    09:00 +16°C° 0.6 mm 6 mps 746 mmHg 78%
    10:00 +17°C° 0.2 mm 6 mps 745 mmHg 68%
    11:00 +20°C° 0.2 mm 7 mps 745 mmHg 58%
    12:00 +22°C° 0.2 mm 7 mps 745 mmHg 47%
    13:00 +21°C° 0.3 mm 7 mps 745 mmHg 51%
    14:00 +21°C° 0.3 mm 7 mps 746 mmHg 55%
    15:00 +21°C° 0.3 mm 7 mps 746 mmHg 59%
    16:00 +21°C° 0 mm 8 mps 747 mmHg 55%
    17:00 +21°C° 0 mm 8 mps 748 mmHg 51%
    18:00 +21°C° 0 mm 9 mps 748 mmHg 47%
    19:00 +20°C° 0 mm 8 mps 750 mmHg 49%
    20:00 +18°C° 0 mm 8 mps 751 mmHg 51%
    21:00 +17°C° 0 mm 7 mps 752 mmHg 53%
    22:00 +17°C° 0 mm 7 mps 753 mmHg 53%
    23:00 +16°C° 0 mm 7 mps 754 mmHg 54%

    25 February, Monday

    Time Temperature Precipitation Wind Pressure Humidity
    00:00 +16°C° 0 mm 7 mps 754 mmHg 54%
    01:00 +16°C° 0 mm 7 mps 754 mmHg 55%
    02:00 +15°C° 0 mm 7 mps 755 mmHg 55%
    03:00 +15°C° 0 mm 7 mps 755 mmHg 56%
    04:00 +15°C° 0 mm 7 mps 755 mmHg 56%
    05:00 +15°C° 0 mm 7 mps 756 mmHg 56%
    06:00 +15°C° 0 mm 7 mps 757 mmHg 56%
    07:00 +15°C° 0 mm 6 mps 758 mmHg 52%
    08:00 +16°C° 0 mm 6 mps 758 mmHg 49%
    09:00 +17°C° 0 mm 6 mps 759 mmHg 46%
    10:00 +19°C° 0 mm 6 mps 759 mmHg 43%
    11:00 +20°C° 0 mm 5 mps 759 mmHg 39%
    12:00 +21°C° 0 mm 5 mps 760 mmHg 36%
    13:00 +21°C° 0 mm 6 mps 760 mmHg 36%
    14:00 +22°C° 0 mm 6 mps 759 mmHg 35%
    15:00 +22°C° 0 mm 7 mps 759 mmHg 35%
    16:00 +21°C° 0 mm 7 mps 760 mmHg 38%
    17:00 +20°C° 0 mm 7 mps 760 mmHg 41%
    18:00 +20°C° 0 mm 7 mps 760 mmHg 44%
    19:00 +19°C° 0 mm 6 mps 761 mmHg 46%
    20:00 +19°C° 0 mm 6 mps 761 mmHg 48%
    21:00 +17°C° 0 mm 6 mps 762 mmHg 50%
    22:00 +16°C° 0 mm 6 mps 762 mmHg 51%
    23:00 +15°C° 0 mm 5 mps 763 mmHg 52%
    Show more